Location: Vanderbilt Planetarium & Observatory
(40.9052°N, 73.3671°W)
Time: 05:31:07
(UTC-04:00)

Daily predictions for brighter satellites

Satellite Brightness Start Highest point End
(mag) Time Altitude Azimuth Time Altitude Azimuth Time Altitude Azimuth
ATLAS 2AS CENTAUR R/B 2.9 00:08:09 81° ENE 00:08:09 81° ENE 00:15:54 10° NE
CZ-2C R/B 4.4 00:20:41 33° N 00:20:41 33° N 00:23:25 10° N
Cosmos 2184 Rocket 4.4 00:15:52 10° N 00:21:02 61° N 00:21:02 61° N
ATLAS 3B R/B 2.9 00:29:32 10° NNW 00:35:09 62° NNW 00:35:09 62° NNW
ATLAS CENTAUR R/B 4.2 00:42:33 16° NNW 00:42:33 16° NNW 00:43:58 10° N
Cosmos 2369 Rocket 3.3 00:36:33 10° NNW 00:40:34 40° NNE 00:40:34 40° NNE
Cosmos 1943 Rocket 3.6 00:44:27 10° N 00:49:01 31° NE 00:49:01 31° NE
USA 238 DEB 3.9 00:53:36 10° NW 00:59:42 68° NNW 00:59:42 68° NNW
USA 238 3.9 00:53:42 10° NW 00:59:49 68° NNW 00:59:49 68° NNW
Cosmos 2154 Rocket 4.5 00:55:28 10° N 01:00:21 57° N 01:00:21 57° N
SL-16 R/B 4.1 01:04:05 20° WNW 01:04:48 21° NW 01:09:01 10° N
USA 215 4.3 01:09:23 10° ENE 01:13:16 33° E 01:13:16 33° E
CZ-2C R/B 4.2 01:22:09 10° N 01:25:58 28° NW 01:25:58 28° NW
NOSS 3-2 (C) 4.3 01:25:12 10° NNW 01:32:38 61° NE 01:34:43 48° ESE
Cosmos 2181 Rocket 4.4 01:46:45 59° NW 01:46:45 59° NW 01:52:14 10° N
Cosmos 2366 rocket 4.3 01:40:44 10° N 01:46:20 63° NE 01:46:20 63° NE
Cosmos 2218 Rocket 4.2 01:41:13 10° N 01:46:29 64° NNE 01:46:29 64° NNE
COSMOS 2455 3.5 01:48:12 10° NNW 01:54:03 51° NE 01:54:23 50° ENE
SL-8 Rocket 4.3 01:51:12 10° N 01:56:08 57° NNW 01:56:08 57° NNW
Cosmos 1943 4.3 01:58:32 37° NW 01:58:32 37° NW 02:02:57 10° N
NOSS 3-4 (A) 3.6 01:59:15 70° NE 01:59:15 70° NE 02:04:58 10° NE
NOSS 3-4 (C) 3.6 01:59:22 70° NE 01:59:22 70° NE 02:05:04 10° NE
SL-16 R/B 4.5 01:54:53 12° ESE 01:59:04 23° ENE 02:03:42 10° NNE
NOSS 3-2 (A) 3.9 02:04:06 10° NW 02:11:09 68° W 02:11:09 68° W
CZ-2D R/B 4.1 02:10:44 10° NE 02:14:16 18° E 02:14:59 18° ESE
Cosmos 2369 Rocket 4.4 02:21:23 10° NW 02:22:21 14° WNW 02:22:21 14° WNW
BREEZE M DEB (TANK) 4.2 02:08:44 10° WNW 02:28:47 62° SW 02:28:58 62° SW
Cosmos 1943 Rocket 3.8 02:28:05 10° NW 02:30:31 24° NW 02:30:31 24° NW
Nadezhda 3 Rocket 3.9 02:35:15 77° SE 02:35:33 80° E 02:41:55 10° N
Cosmos 2112 Rocket 4.4 02:45:01 58° NNW 02:45:01 58° NNW 02:49:35 10° NNE
IRS-1C 4.3 02:41:48 10° NNE 02:47:07 63° ESE 02:47:12 63° ESE
Cosmos 2082 Rocket 4.5 02:45:22 12° SE 02:47:49 15° E 02:50:58 10° ENE
Aureole 1 Rocket 4.3 02:49:14 36° NNW 02:49:14 36° NNW 02:52:03 10° N
Meteor 2-8 Rocket 4.3 02:47:57 72° SSE 02:48:31 79° E 02:54:41 10° N
Lacrosse 5 rocket 2.2 02:52:20 55° NE 02:52:20 55° NE 02:56:03 10° NE
UNK 4.5 02:56:04 45° E 02:56:41 48° ENE 03:01:05 10° N
AQUA 4.0 02:51:54 10° NNE 02:56:10 71° NNE 02:56:10 71° NNE
USA 215 3.6 02:52:18 10° NE 02:58:40 57° NW 03:00:37 42° W
Cosmos 1624 Rocket 4.0 02:54:24 10° NNW 02:59:38 79° ENE 02:59:55 75° ESE
COSMOS 2406 3.3 03:02:16 60° WNW 03:02:29 61° WNW 03:08:11 10° NNE
IRS-P3 4.4 03:05:10 10° N 03:10:21 53° WNW 03:10:22 53° WNW
Cosmos 1825 Rocket 3.7 03:11:55 68° N 03:11:55 68° N 03:15:46 10° N
NOSS 2-2 (E) 3.7 03:12:11 68° N 03:12:11 68° N 03:16:24 10° NNE
Cosmos 2056 Rocket 3.3 03:08:17 10° NNW 03:13:38 84° WSW 03:14:02 76° S
Spot 4 Rocket 4.0 03:09:33 10° NNE 03:14:44 78° ESE 03:15:25 65° SSE
ADEOS Rocket 3.3 03:09:45 10° NNE 03:15:57 70° ESE 03:18:33 39° S
Cosmos 389 Rocket 4.0 03:13:57 10° N 03:17:15 33° ENE 03:17:43 32° E
USA 32 4.0 03:17:06 64° SSE 03:17:56 82° E 03:23:11 10° N
Cosmos 1707 4.2 03:18:32 29° ESE 03:19:10 31° E 03:22:36 10° NNE
Cosmos 1821 Rocket 3.8 03:13:38 10° NNW 03:19:43 71° W 03:20:58 56° SSW
CBERS-1 4.3 03:15:41 10° N 03:20:36 50° WNW 03:20:41 50° WNW
RESURS DK-1 4.0 03:21:41 24° NW 03:21:41 24° NW 03:24:30 10° N
CENTAUR R/B 3.0 03:15:56 10° NW 03:23:54 83° WSW 03:32:21 10° SSE
Cosmos 2239 Rocket 4.5 03:22:15 10° NNW 03:28:17 59° W 03:29:25 51° SW
USA 267 3.3 03:24:04 10° SE 03:30:36 80° NE 03:37:10 10° NW
SL-27 R/B 4.3 03:33:10 24° NW 03:33:10 24° NW 03:35:15 10° N
Resurs 1-4 Rocket 2.0 03:28:42 10° NNE 03:34:00 83° WNW 03:35:17 53° SSW
Cosmos 1470 3.0 03:30:08 10° N 03:34:01 64° E 03:34:35 55° SE
Cosmos 1934 Rocket 4.0 03:29:57 10° NNW 03:36:12 68° W 03:38:36 39° SSW
IRS-1D 3.5 03:33:01 10° N 03:38:16 74° WNW 03:39:35 51° SW
COSMOS 2455 4.3 03:34:46 10° NW 03:37:27 21° WNW 03:37:27 21° WNW
Cosmos 1605 Rocket 3.9 03:34:20 10° N 03:40:35 90° W 03:44:26 24° S
Okean O Rocket 4.3 03:38:56 10° NE 03:41:34 15° E 03:44:09 10° SE
SL-16 R/B 2.5 03:39:58 39° SSW 03:42:12 61° WSW 03:48:18 10° NNW
ARIANE 5 R/B 2.5 03:38:07 10° N 03:43:21 71° WNW 03:44:46 48° SW
ADEOS 3.5 03:39:17 10° N 03:44:28 68° WNW 03:45:53 47° SW
Cosmos 1452 Rocket 3.5 03:43:05 10° NNW 03:48:22 82° ENE 03:53:38 10° SSE
NOSS 2-2 (D) 4.1 03:47:55 39° WNW 03:48:33 42° NW 03:53:00 10° NNE
USA 161 2.9 03:48:08 33° ESE 03:48:44 38° ENE 03:51:23 10° N
Cosmos 1953 3.3 03:46:56 10° NNW 03:49:46 33° WNW 03:49:46 33° WNW
UNKNOWN OBJECT B 2.9 03:47:43 10° NNE 03:51:46 79° ESE 03:52:52 47° S
Cosmos-2242 2.9 03:49:12 10° N 03:53:37 81° W 03:55:11 39° S
Cosmos 1697 Rocket 4.0 03:49:20 10° N 03:54:39 41° ENE 03:59:54 10° SE
CZ-2D R/B 2.3 03:49:32 10° N 03:54:42 55° WNW 03:56:19 39° SW
Cosmos 1733 3.0 03:52:17 10° NNW 03:56:03 66° W 03:56:19 63° WSW
MOS 1 Rocket 3.7 03:53:18 10° NNE 03:57:38 55° E 04:00:29 21° S
Cosmos 921 Rocket 4.0 03:55:07 10° NW 03:58:27 31° W 03:58:27 31° W
Cosmos 468 4.5 03:59:13 31° SSW 04:01:47 81° ESE 04:07:02 10° NNE
Cosmos 1420 Rocket 4.3 03:56:51 10° NNW 04:02:11 70° ENE 04:07:26 10° SSE
Tiangong 1 3.5 04:06:25 12° SE 04:06:25 12° SE 04:06:42 10° SE
MOZ.5/SAFIR/RUBIN 5/SL-8 3.6 04:01:45 18° S 04:05:11 82° WSW 04:09:55 10° NNW
Cosmos 1842 Rocket 4.1 04:01:20 10° N 04:05:43 59° E 04:10:06 10° SSE
Cosmos 2278 3.6 04:00:53 10° NNW 04:06:38 79° WSW 04:12:19 10° SSE
Cosmos 1048 Rocket 4.3 04:04:12 21° S 04:07:30 62° ESE 04:12:33 10° NNE
Cosmos 839 Rocket 4.3 04:03:26 10° NW 04:09:44 58° WSW 04:17:13 10° SSE
COSMOS 2487 2.7 04:10:22 46° W 04:10:52 51° WNW 04:14:22 10° N
EXPRESS MD2 3.6 04:06:27 10° WNW 04:12:19 70° NNE 04:15:20 10° ESE
Cosmos 2100 Rocket 4.2 04:08:22 10° N 04:14:34 72° E 04:20:41 10° SSE
Cosmos 2369 3.6 04:09:36 10° NNW 04:15:19 69° WSW 04:20:59 10° SSE
Cosmos 2173 Rocket 4.3 04:10:40 10° N 04:16:56 68° E 04:23:04 10° SSE
Cosmos 1656 3.6 04:13:41 10° NNW 04:19:09 90° ENE 04:24:35 10° SSE
CZ-2D R/B 3.5 04:16:09 10° N 04:20:08 57° WNW 04:21:47 31° SW
Cosmos 1833 Rocket 2.6 04:21:58 21° SSW 04:25:51 87° WNW 04:31:31 10° NNE
Cosmos 1269 Rocket 4.0 04:23:55 19° SSW 04:27:44 87° WNW 04:33:02 10° NNE
Cosmos 1980 Rocket 3.3 04:24:16 10° NNW 04:29:47 47° ENE 04:35:13 10° SE
GEOS 3 Rocket 4.3 04:25:42 10° NNE 04:30:40 43° NW 04:34:03 20° WSW
Lacrosse 5 rocket 3.4 04:28:02 12° WNW 04:31:09 22° NNW 04:34:48 10° NNE
Cosmos 2082 Rocket 2.2 04:27:14 21° SSW 04:31:12 73° WNW 04:36:55 10° NNE
DNEPR-1 R/B 4.2 04:29:37 10° NW 04:33:24 31° WSW 04:37:26 10° S
ADEOS II 2.7 04:29:20 10° NNE 04:34:32 57° E 04:39:41 10° S
Meteor 2-5 Rocket 4.1 04:37:49 17° SW 04:41:57 47° WNW 04:47:35 10° N
CZ-4B R/B 3.8 04:37:04 10° NNE 04:42:21 56° E 04:47:31 10° S
Landsat 4 3.8 04:42:41 10° S 04:46:17 49° W 04:49:56 10° NNW
Cosmos 2061 Rocket 3.9 04:42:20 10° N 04:48:33 74° W 04:54:42 10° S
Cosmos 1378 4.3 04:49:57 18° WSW 04:51:41 25° WNW 04:54:51 10° NNW
Cosmos 389 Rocket 4.5 04:50:03 10° WNW 04:51:42 13° W 04:51:42 13° W
Cosmos 158 Rocket 4.1 04:48:18 14° SW 04:52:31 57° WNW 04:57:37 10° NNE
GPS 2-05 Rocket1 3.7 04:52:41 18° SW 04:54:47 34° S 04:57:58 10° ESE
Cosmos 1707 4.5 04:53:46 14° W 04:55:09 17° WNW 04:57:44 10° NNW
Cosmos 2016 Rocket 4.0 04:49:03 10° N 04:55:20 84° W 05:01:40 10° S
PAYLOAD B 4.3 04:50:09 10° NNE 04:55:46 83° ESE 05:01:18 10° SSW
Cosmos 2123 Rocket 4.3 04:50:08 10° S 04:56:25 75° E 05:02:42 10° N
Meteor 2-1 Rocket 4.2 04:52:31 10° NNW 04:58:10 69° W 05:03:54 10° S
CZ-4B R/B 3.1 04:56:28 10° N 05:00:50 73° WNW 05:05:18 10° SSW
Okean 3 Rocket 3.5 04:57:52 10° SSW 05:02:15 77° W 05:06:43 10° N
Meteor 1-31 Rocket 4.4 05:03:42 10° NNE 05:07:21 37° E 05:11:01 10° SSE
Cosmos 1908 3.7 05:04:21 10° N 05:08:12 64° E 05:12:02 10° SSE
In-Cosmos 22 4.1 05:04:10 10° SSW 05:09:25 64° WNW 05:14:41 10° N
Cosmos 1076 Rocket 3.5 05:06:14 10° S 05:10:28 88° E 05:14:43 10° N
Resurs 1-4 Rocket 4.1 05:11:28 10° NW 05:12:59 11° WNW 05:14:28 10° WNW
CENTAUR R/B 4.3 05:08:35 10° WNW 05:13:47 19° WSW 05:19:06 10° SW
USA 267 4.0 05:08:34 10° S 05:13:59 28° SW 05:19:26 10° WNW
Cosmos 1459 Rocket 4.4 05:08:24 10° NNW 05:14:09 41° W 05:19:57 10° SSW
Cosmos 494 Rocket 4.1 05:09:31 10° SSW 05:14:37 79° ESE 05:19:45 10° NNE
BREEZE-M DEB (TANK) 4.0 05:08:31 10° SW 05:16:11 47° SSE 05:19:21 10° ENE
Cosmos 1766 Rocket 3.9 05:12:23 10° S 05:16:50 71° E 05:21:18 10° NNE
Okean O Rocket 2.0 05:13:55 10° N 05:18:11 47° WNW 05:22:24 10° SW
Cosmos 1802 Rocket 4.4 05:12:34 10° NNW 05:18:39 46° W 05:24:40 10° SSW
Orbus 7S? 3.8 05:18:32 10° WNW 05:20:45 20° SW 05:22:50 10° S
Gbstr 26 Del rocket 4.3 05:16:12 10° NW 05:23:57 86° NE 05:30:24 10° SE
